Regional Weather Roundup
Issued by NWS

Home | Current Version | Previous Version | Graphics & Text | Print | Product List | Glossary On
Versions: 1 2 3 4 5 6 7 8 9 10 11 12 13 14 15 16 17 18 19 20 21 22 23 24 25 26 27 28 29 30 31 32 33 34 35 36 37 38 39 40 41 42 43 44 45 46 47 48 49 50
000
ASUS43 KOAX 241302
RWRNE

WEATHER ROUNDUP FOR NEBRASKA
NATIONAL WEATHER SERVICE OMAHA NE
800 AM CDT TUE APR 24 2018

NOTES: SATELLITE DATA IS BEING USED TO AUGMENT CLOUD COVER ABOVE
       12000 FEET.
       "FAIR" INDICATES FEW OR NO CLOUDS BELOW 12,000 FEET WITH NO
       SIGNIFICANT WEATHER AND/OR OBSTRUCTIONS TO VISIBILITY.


NEZ001>004-019>022-054>056-241400-
NEBRASKA PANHANDLE

CITY           SKY/WX    TMP DP  RH WIND       PRES   REMARKS
SCOTTSBLUFF    CLOUDY    37  33  85 NW17G25   30.40R WCI  27
ALLIANCE       CLOUDY    35  34  96 N13       30.36R WCI  26
CHADRON        CLOUDY    36  31  82 N22G32    30.43R WCI  25
GORDON         CLOUDY    35  33  92 N23G33    30.34R FOG     WCI  23
KIMBALL        CLOUDY    34  31  91 N21G26    30.38R WCI  22
SIDNEY         LGT SNOW  34  32  92 N23       30.35R FOG     WCI  22
$$

NEZ057>060-069>072-079>082-241400-
SOUTHWEST NEBRASKA

CITY           SKY/WX    TMP DP  RH WIND       PRES   REMARKS
NORTH PLATTE   LGT RAIN  42  38  85 N14       30.29R
IMPERIAL       LGT RAIN  40  38  93 NW21      30.31R WCI  30
LEXINGTON      DRIZZLE   46  40  80 NW17      30.25R
MCCOOK         CLOUDY    45  43  93 NW17      30.26R
OGALLALA       LGT RAIN  41  37  86 NW20G25   30.31R
$$

NEZ005>010-023>029-035>040-094-241400-
NORTH CENTRAL NEBRASKA

CITY           SKY/WX    TMP DP  RH WIND       PRES   REMARKS
VALENTINE      CLOUDY    40  37  89 NW22G33   30.26R WCI  30
AINSWORTH      CLOUDY    40  39  95 NW22G31   30.24R WCI  30
BROKEN BOW     LGT RAIN  43  39  86 NW22G31   30.22R
O`NEILL        CLOUDY    47  43  85 NW14      30.19S
ORD            CLOUDY    46  40  79 NW20G30   30.20R
THEDFORD       CLOUDY    40  37  91 NW21G29   30.28R WCI  30
$$

NEZ041-046>049-061>064-073>077-083>087-241400-
SOUTH CENTRAL NEBRASKA

CITY           SKY/WX    TMP DP  RH WIND       PRES   REMARKS
GRAND ISLAND   CLOUDY    52  44  74 W8        30.19R
AURORA         CLOUDY    51  40  64 NW3       30.17R
HASTINGS       CLOUDY    51  42  71 W5        30.18R
HEBRON         CLOUDY    44  39  83 CALM      30.16R
HOLDREGE       CLOUDY    51  48  89 N16       30.21R
KEARNEY        CLOUDY    49  43  80 N22G30    30.20R
YORK             N/A     48  37  66 CALM      30.16R
$$

NEZ011>018-030>034-042>045-241400-
NORTHEAST NEBRASKA

CITY           SKY/WX    TMP DP  RH WIND       PRES   REMARKS
NORFOLK        CLOUDY    49  42  77 W6        30.15R
ALBION         CLOUDY    53  45  74 NW15      30.17R
BLAIR          SUNNY     50  40  68 NE5       30.13R
COLUMBUS       MOSUNNY   48  39  71 CALM      30.16R
FREMONT        SUNNY     45  38  77 CALM      30.15R
TEKAMAH        SUNNY     48  42  80 N7        30.15R
WAYNE          CLOUDY    42  41  97 CALM      30.16R
$$

NEZ050>053-065>068-078-088>093-241400-
SOUTHEAST NEBRASKA

CITY           SKY/WX    TMP DP  RH WIND       PRES   REMARKS
LINCOLN        SUNNY     44  34  67 N3        30.16R
OMAHA EPPLEY   MOSUNNY   46  38  73 NW3       30.14R
BEATRICE       SUNNY     46  38  75 NW3       30.16R
FALLS CITY     SUNNY     45  36  70 NW3       30.13R
NEBRASKA CITY  SUNNY     51  37  59 CALM      30.14R
$$

NEZ044-045-051>053-067-241400-
OMAHA AREA

CITY           SKY/WX    TMP DP  RH WIND       PRES   REMARKS
OMAHA EPPLEY   MOSUNNY   46  38  73 NW3       30.14R
BLAIR          SUNNY     50  40  68 NE5       30.13R
FREMONT        SUNNY     45  38  77 CALM      30.15R
MILLARD        SUNNY     49  42  76 CALM      30.14R
OFFUTT AFB     SUNNY     47  40  76 CALM      30.13R
WAHOO          FAIR      49  36  61 NW3       30.15R
$$




USA.gov is the U.S. government's official web portal to all federal, state and local government web resources and services.